• Processing (Info)

  • MPEC 2000-R45 : 2000 RS11

    The following Minor Planet Electronic Circular may be linked-to from your own Web pages, but must not otherwise be redistributed electronically.

    A form allowing access to any MPEC is at the bottom of this page.


    Read MPEC 2000-R44 Read MPEC 2000-R46


    M.P.E.C. 2000-R45                                Issued 2000 Sept. 11, 15:37 UT
    
         The Minor Planet Electronic Circulars contain information on unusual
             minor planets and routine data on comets.  They are published
       on behalf of Commission 20 of the International Astronomical Union by the
              Minor Planet Center, Smithsonian Astrophysical Observatory,
                              Cambridge, MA 02138, U.S.A.
    
                 Prepared using the Tamkin Foundation Computer Network
    
                 BMARSDEN@CFA.HARVARD.EDU or GWILLIAMS@CFA.HARVARD.EDU
              URL http://cfa-www.harvard.edu/iau/mpc.html  ISSN 1523-6714
    
                                       2000 RS11
    
    Observations:
         K00R11S* C2000 09 02.34714 01 40 32.77 +08 34 46.5          19.5        704
         K00R11S  C2000 09 02.37332 01 40 34.90 +08 34 06.4          19.1        704
         K00R11S  C2000 09 02.38641 01 40 35.88 +08 33 45.9          19.2        704
         K00R11S  C2000 09 04.30149 01 43 16.22 +07 42 01.9          18.7        704
         K00R11S  C2000 09 04.31509 01 43 17.33 +07 41 39.1          19.3        704
         K00R11S  C2000 09 04.32866 01 43 18.31 +07 41 15.2          18.8        704
         K00R11S  C2000 09 04.34216 01 43 19.31 +07 40 52.2          19.2        704
         K00R11S  C2000 09 10.94881 01 52 16.96 +03 59 15.1          17.1 R      046
         K00R11S  C2000 09 10.95013 01 52 17.14 +03 59 12.0                      046
         K00R11S  C2000 09 10.95119 01 52 17.26 +03 59 09.3                      046
         K00R11S  C2000 09 10.95263 01 52 17.40 +03 59 06.2                      046
         K00R11S  C2000 09 10.95411 01 52 17.49 +03 59 01.6                      046
         K00R11S  C2000 09 10.95589 01 52 17.62 +03 58 59.0          17.0 R      046
         K00R11S  C2000 09 11.02226 01 52 22.40 +03 56 21.9                      557
         K00R11S  C2000 09 11.02389 01 52 22.51 +03 56 19.0                      557
         K00R11S  C2000 09 11.02552 01 52 22.68 +03 56 15.1                      557
         K00R11S  C2000 09 11.05850 01 52 25.15 +03 54 57.7          17.3 R      118
         K00R11S  C2000 09 11.06086 01 52 25.38 +03 54 51.4                      118
         K00R11S  C2000 09 11.06469 01 52 25.60 +03 54 42.8                      118
    
    Observer details:
    046 Klet.  Observers J. Ticha, M. Tichy, Z. Moravec, M. Kocer.  0.57-m f/5.2
        reflector + CCD.
    118 Modra.  Observers P. Koleny, L. Kornos.  0.6-m f/5.5 reflector + CCD.
    557 Ondrejov.  Observer L. Sarounova.  0.65-m f/3.6 reflector + CCD.
    704 Lincoln Laboratory ETS, New Mexico.  Observers M. Blythe, F. Shelly,
        M. Bezpalko, M. Elowitz, R. Huber, L. Manguso.  Measurers J. Stuart,
        R. Sayer, J. B. Evans, H. Viggh.  1.0-m f/2.15 reflector + CCD.
    
    Orbital elements:
    2000 RS11                                                            PHA 0.016A
    Epoch 2000 Aug. 24.0 TT = JDT 2451780.5                 Spahr
    M 269.49309              (2000.0)            P               Q
    n   0.68041715     Peri.  301.70443     -0.41149092     -0.91056321
    a   1.2802237      Node   172.27906     +0.90348189     -0.41321536
    e   0.3199124      Incl.   17.03957     +0.11998212     -0.01130084
    P   1.45           H   17.8           G   0.15
    From 19 observations 2000 Sept. 2-11.
    
    Ephemeris:
    2000 RS11                a,e,i = 1.28, 0.32, 17                  q = 0.8707
    Date    TT    R. A. (2000) Decl.     Delta      r     Elong.  Phase     V
    2000 09 03    01 41.45   +08 17.9    0.452    1.363   134.2    32.0    18.1
    2000 09 13    01 54.98   +02 35.6    0.369    1.317   142.0    28.0    17.5
    2000 09 23    02 07.70   -06 17.2    0.302    1.269   147.7    25.0    16.9
    2000 10 03    02 19.70   -18 55.8    0.254    1.219   145.9    27.4    16.5
    2000 10 13    02 31.87   -34 24.4    0.229    1.168   133.9    38.0    16.5
    2000 10 23    02 46.15   -49 56.2    0.225    1.117   117.5    52.2    16.7
    2000 11 02    03 06.63   -62 58.3    0.236    1.066   101.9    65.6    17.1
    2000 11 12    03 44.1    -72 57.7    0.252    1.018    89.1    76.5    17.5
    2000 11 22    05 11.9    -80 15.6    0.269    0.973    79.0    85.2    17.9
    2000 12 02    08 50.8    -83 03.9    0.283    0.934    71.2    92.2    18.2
    2000 12 12    11 59.1    -78 52.0    0.294    0.903    65.4    97.4    18.4
    2000 12 22    13 20.8    -71 40.8    0.303    0.881    61.6   100.7    18.6
    2001 01 01    14 10.14   -63 23.9    0.313    0.871    60.2   101.7    18.7
    2001 01 11    14 48.92   -54 34.8    0.324    0.874    61.0   100.1    18.7
    2001 01 21    15 22.91   -45 41.6    0.338    0.888    63.8    96.3    18.6
    2001 01 31    15 53.41   -37 04.3    0.353    0.914    68.0    91.0    18.6
    2001 02 10    16 20.60   -28 52.0    0.369    0.949    73.2    84.9    18.5
    2001 02 20    16 44.36   -21 06.6    0.384    0.990    79.0    78.6    18.4
    2001 03 02    17 04.17   -13 43.4    0.397    1.037    85.2    72.3    18.4
    2001 03 12    17 19.57   -06 37.9    0.408    1.086    91.9    66.1    18.4
    2001 03 22    17 30.07   +00 12.3    0.417    1.137    98.8    60.0    18.3
    2001 04 01    17 34.91   +06 45.3    0.425    1.188   106.0    53.9    18.3
    2001 04 11    17 33.52   +12 51.1    0.434    1.239   113.2    48.0    18.3
    2001 04 21    17 25.56   +18 13.3    0.447    1.288   120.1    42.5    18.3
    2001 05 01    17 11.32   +22 28.1    0.465    1.336   126.1    37.6    18.3
    2001 05 11    16 52.53   +25 12.3    0.492    1.380   130.5    33.8    18.4
    2001 05 21    16 31.98   +26 14.4    0.527    1.423   132.6    31.6    18.5
    2001 05 31    16 12.94   +25 38.6    0.574    1.462   132.2    30.9    18.7
    2001 06 10    15 57.96   +23 45.1    0.630    1.499   129.8    31.3    19.0
    2001 06 20    15 48.07   +20 59.4    0.697    1.533   126.0    32.5    19.3
    2001 06 30    15 43.37   +17 43.9    0.772    1.563   121.3    33.8    19.6
    2001 07 10    15 43.29   +14 16.3    0.854    1.590   116.1    35.0    19.9
    2001 07 20    15 47.08   +10 47.7    0.943    1.614   110.9    36.0    20.2
    2001 07 30    15 54.12   +07 25.0    1.037    1.635   105.6    36.7    20.4
    2001 08 09    16 03.84   +04 12.6    1.135    1.652   100.4    37.1    20.7
    2001 08 19    16 15.77   +01 12.8    1.235    1.666    95.2    37.2    20.9
    2001 08 29    16 29.63   -01 33.1    1.336    1.677    90.1    37.0    21.1
    
    Timothy B. Spahr             (C) Copyright 2000 MPC           M.P.E.C. 2000-R45
    

    Read MPEC 2000-R44 Read MPEC 2000-R46


    MPEC number:

    Enter an MPEC number in one of the following forms:

    • 1997-B01 (the full form)
    • J97B01 (the packed version of the full form)
    • B01 (the abbreviated form)